Kezdőlap
METAR-TAF:

METAR-TAF

Repülőterek :

Platteville, Wisconsin, Amerikai Egyesült Államok

földrajzi szélesség: 42-41-22N, földrajzi hosszúság: 090-26-40W, magasság: 312 m

Jelenlegi meteorológiai megfigyelések

A jelentés 46 perccel ezelõtt készült, 23:15 UTC
Déli szél 6 kt
Hőmérséklet 4°C
Páratartalom 70%
Légköri nyomás 1016 hPa
Látótávolság: 16.1 km
Derült ég

METAR: KPVB 222315Z AUTO 17006KT 10SM CLR 04/M01 A3000 RMK AO1 T00401007

Idő: 18:01 (00:01 UTC)


TAF: hiányzik

Meteorológiai megfigyelések és előrejelzések több, mint 4000 repülőtéren (METAR és TAF jelentéseket).

A térképen piros és sárga pontok jelzik az elérhető meteorológiai állomásokat.

Mozgassa az egeret a pont fölött, hogy megjelenjen az állomás neve.

Azután kattintson az időjárási megfigyelések és előrejelzések megtekintéséhez.

A térkép megváltoztatása: kattintson a fekete keresztel jelölt zöld gombra ráközelítéshez, a vonallal jelölt zöld gombra távolításhoz, vagy a zöld nyilakra a szomszédos térképek eléréséhez.


METAR-TAF: